SQ6MTB Weather Reports


time (UTC)temp
C
wind
direction
speed
KPH
gust
KPH
rain 1hr
cm
rain 24hr
cm
rain mn
cm
humidity
%
barometer
mb
20260507223602 6 24 0.0 6.4 0.05 1.37 0.03 91 1018.4
20260507223011 6 34 0.0 4.8 0.05 1.37 0.03 91 1018.5
20260507222538 6 38 0.0 6.4 0.05 1.37 0.03 91 1018.4
20260507222054 6 58 1.6 6.4 0.05 1.37 0.03 91 1018.3
20260507221522 6 59 1.6 6.4 0.05 1.37 0.03 91 1018.4
20260507221032 7 37 1.6 4.8 0.05 1.37 0.03 91 1018.3
20260507220550 7 55 0.0 4.8 0.05 1.37 0.00 91 1018.3
20260507220018 7 43 1.6 8.0 0.05 1.37 0.00 91 1018.3
20260507215529 7 48 1.6 8.0 0.05 1.37 1.37 91 1018.3
20260507215046 7 58 0.0 6.4 0.05 1.37 1.37 91 1018.3
20260507214602 7 59 1.6 6.4 0.05 1.37 1.37 91 1018.3
20260507214012 7 38 0.0 9.7 0.05 1.35 1.35 91 1018.3
20260507213540 7 17 3.2 9.7 0.05 1.35 1.35 91 1018.3
20260507213058 7 48 1.6 6.4 0.05 1.35 1.35 91 1018.2
20260507212512 7 35 0.0 4.8 0.05 1.32 1.32 91 1018.2
20260507212037 7 11 1.6 4.8 0.05 1.32 1.32 91 1018.2
20260507211554 7 37 0.0 8.0 0.05 1.32 1.32 91 1018.0
20260507211015 7 5 1.6 8.0 0.05 1.32 1.32 91 1018.0
20260507210533 7 50 1.6 6.4 0.05 1.32 1.32 91 1018.0
20260507210113 7 43 0.0 6.4 0.03 1.30 1.30 91 1017.9
20260507205514 7 11 1.6 9.7 0.03 1.30 1.30 91 1017.8
20260507205028 7 51 0.0 4.8 0.03 1.30 1.30 91 1017.9
20260507204552 7 36 0.0 9.7 0.03 1.30 1.30 91 1017.7
20260507204104 7 50 4.8 9.7 0.00 1.27 1.27 91 1017.8
20260507203513 7 63 3.2 9.7 0.00 1.27 1.27 91 1017.7
20260507203030 7 28 1.6 8.0 0.00 1.27 1.27 91 1017.6
20260507202550 7 360 1.6 8.0 0.00 1.27 1.27 90 1017.5
20260507202002 7 13 3.2 8.0 0.00 1.27 1.27 90 1017.4
20260507201533 7 14 1.6 4.8 0.00 1.27 1.27 90 1017.4
20260507201044 7 13 0.0 8.0 0.00 1.27 1.27 90 1017.4
20260507200601 7 19 3.2 8.0 0.00 1.27 1.27 90 1017.4
20260507200034 7 32 1.6 9.7 0.00 1.27 1.27 90 1017.2
20260507195539 7 40 3.2 12.9 0.00 1.27 1.27 90 1017.2
20260507195054 7 360 3.2 12.9 0.00 1.27 1.27 90 1017.2
20260507194517 7 46 1.6 8.0 0.00 1.27 1.27 90 1017.2
20260507194032 7 39 1.6 8.0 0.00 1.27 1.27 90 1017.2
20260507193549 7 76 1.6 8.0 0.00 1.27 1.27 90 1017.2
20260507193023 7 26 1.6 9.7 0.00 1.27 1.27 90 1017.1
20260507192530 7 38 3.2 9.7 0.00 1.27 1.27 90 1017.1
20260507192051 7 60 3.2 9.7 0.00 1.27 1.27 90 1017.1
20260507191504 7 17 1.6 12.9 0.00 1.27 1.27 90 1017.0
20260507191016 7 15 3.2 12.9 0.00 1.27 1.27 90 1017.0
20260507190537 7 22 3.2 9.7 0.00 1.27 1.27 90 1016.9
20260507190052 7 30 1.6 14.5 0.00 1.27 1.27 90 1016.9
20260507185504 7 22 4.8 14.5 0.00 1.27 1.27 90 1016.8
20260507185020 7 23 3.2 14.5 0.00 1.27 1.27 90 1016.8
20260507184538 7 34 4.8 11.3 0.00 1.27 1.27 90 1016.8
20260507184057 7 22 1.6 11.3 0.00 1.27 1.27 90 1016.6
20260507183513 7 33 1.6 8.0 0.00 1.27 1.27 90 1016.6
20260507183159 7 37 3.2 9.7 0.00 1.27 1.27 90 1016.6
20260507182501 7 5 1.6 8.0 0.00 1.27 1.27 90 1016.5
20260507182029 7 10 1.6 14.5 0.00 1.27 1.27 90 1016.4
20260507181545 7 36 1.6 14.5 0.00 1.27 1.27 90 1016.4
20260507181008 7 5 1.6 14.5 0.00 1.27 1.27 90 1016.3
20260507180526 7 32 3.2 14.5 0.00 1.27 1.27 90 1016.3
20260507180045 7 30 3.2 14.5 0.00 1.27 1.27 90 1016.3
20260507175606 7 324 4.8 14.5 0.00 1.27 1.27 90 1016.2
20260507175028 7 39 1.6 9.7 0.00 1.27 1.27 90 1016.1
20260507174545 7 360 3.2 12.9 0.00 1.27 1.27 90 1016.1
20260507174009 7 22 1.6 12.9 0.00 1.27 1.27 90 1016.1
20260507173527 7 30 0.0 8.0 0.00 1.27 1.27 90 1016.1
20260507173105 7 37 1.6 8.0 0.00 1.27 1.27 90 1016.0
20260507172501 7 53 0.0 8.0 0.00 1.27 1.27 90 1016.0
20260507172030 7 13 0.0 8.0 0.03 1.27 1.27 90 1015.9
20260507171550 7 355 0.0 8.0 0.03 1.27 1.27 90 1015.8
20260507171008 7 360 3.2 9.7 0.03 1.27 1.27 90 1015.8
20260507170527 7 355 3.2 9.7 0.03 1.27 1.27 90 1015.8
20260507170048 7 51 1.6 9.7 0.03 1.27 1.27 90 1015.7
20260507165508 7 355 1.6 9.7 0.03 1.27 1.27 90 1015.6
20260507165029 7 47 1.6 9.7 0.03 1.27 1.27 89 1015.5
20260507164554 7 48 1.6 9.7 0.03 1.27 1.27 89 1015.5
20260507164004 7 304 3.2 12.9 0.03 1.27 1.27 89 1015.5
20260507163531 8 350 4.8 12.9 0.03 1.27 1.27 90 1015.5
20260507163050 8 343 1.6 9.7 0.03 1.27 1.27 90 1015.3
20260507162504 8 10 0.0 6.4 0.00 1.27 1.27 90 1015.4
20260507162025 8 5 1.6 9.7 0.00 1.27 1.27 90 1015.4
20260507161603 8 17 0.0 9.7 0.03 1.27 1.27 90 1015.4
20260507161004 8 26 4.8 9.7 0.05 1.27 1.27 90 1015.4
20260507160532 8 19 1.6 14.5 0.05 1.27 1.27 90 1015.4
20260507155509 8 40 3.2 12.9 0.10 1.27 1.27 90 1015.3
20260507155025 8 329 3.2 12.9 0.10 1.27 1.27 90 1015.3
20260507154545 8 19 1.6 9.7 0.13 1.27 1.27 90 1015.3
20260507154001 8 5 3.2 14.5 0.13 1.27 1.27 90 1015.3
20260507153529 8 355 6.4 14.5 0.15 1.27 1.27 90 1015.3
20260507153049 8 341 3.2 14.5 0.15 1.27 1.27 90 1015.2
20260507152506 8 36 4.8 14.5 0.15 1.27 1.27 90 1015.2
20260507152026 8 42 3.2 16.1 0.15 1.27 1.27 89 1015.2
20260507151545 8 20 6.4 16.1 0.13 1.24 1.24 90 1015.2
20260507151001 8 46 4.8 11.3 0.10 1.22 1.22 90 1015.2
20260507150530 8 86 1.6 6.4 0.08 1.19 1.19 90 1015.2
20260507150049 8 65 0.0 8.0 0.05 1.17 1.17 89 1015.1
20260507145507 8 52 3.2 8.0 0.05 1.17 1.17 89 1015.1
20260507145029 8 36 3.2 8.0 0.05 1.17 1.17 88 1015.1
20260507144555 8 42 1.6 8.0 0.03 1.14 1.14 88 1015.1
20260507144059 8 23 1.6 12.9 0.03 1.14 1.14 88 1015.2
20260507143516 8 23 4.8 12.9 0.00 1.12 1.12 88 1015.1
20260507143037 8 21 1.6 6.4 0.00 1.12 1.12 88 1015.2
20260507142557 8 64 1.6 6.4 0.00 1.12 1.12 88 1015.1
20260507142013 8 82 1.6 9.7 0.00 1.12 1.12 88 1015.0
20260507141532 8 59 3.2 14.5 0.00 1.12 1.12 88 1015.1
20260507141052 8 65 1.6 14.5 0.00 1.12 1.12 88 1015.0
20260507140512 8 17 6.4 14.5 0.00 1.12 1.12 88 1014.9
20260507140032 8 41 4.8 14.5 0.00 1.12 1.12 88 1015.0
20260507135550 8 59 4.8 12.9 0.00 1.12 1.12 88 1014.9
20260507135013 8 44 3.2 14.5 0.00 1.12 1.12 88 1014.9
20260507134532 8 75 6.4 14.5 0.00 1.12 1.12 88 1014.8
20260507134050 8 44 3.2 12.9 0.00 1.12 1.12 88 1014.7
20260507133508 8 67 6.4 14.5 0.00 1.12 1.12 88 1014.7
20260507133035 8 61 4.8 14.5 0.00 1.12 1.12 88 1014.6
20260507132554 8 57 3.2 11.3 0.00 1.12 1.12 88 1014.5
20260507132020 8 88 4.8 11.3 0.00 1.12 1.12 88 1014.5
20260507131539 8 39 3.2 11.3 0.00 1.12 1.12 87 1014.5
20260507131005 8 57 1.6 17.7 0.00 1.12 1.12 87 1014.5
20260507130532 8 57 8.0 17.7 0.00 1.12 1.12 87 1014.5
20260507130050 8 48 3.2 12.9 0.00 1.12 1.12 87 1014.4
20260507125508 8 333 4.8 17.7 0.00 1.12 1.12 87 1014.2
20260507125031 8 26 6.4 17.7 0.00 1.12 1.12 87 1014.2
20260507124547 8 29 1.6 14.5 0.00 1.12 1.12 87 1014.2
20260507124003 8 51 4.8 14.5 0.00 1.12 1.12 87 1014.1
20260507123527 8 13 4.8 9.7 0.00 1.12 1.12 88 1014.1
20260507123047 8 46 3.2 17.7 0.00 1.12 1.12 87 1014.0
20260507122502 8 355 4.8 12.9 0.00 1.12 1.12 88 1014.0
20260507122024 8 17 4.8 14.5 0.00 1.12 1.12 87 1014.0
20260507121539 8 339 4.8 14.5 0.00 1.12 1.12 87 1013.9
20260507121058 8 73 8.0 14.5 0.00 1.12 1.12 87 1013.9
20260507120514 8 51 1.6 8.0 0.00 1.12 1.12 88 1013.8
20260507120034 8 5 3.2 12.9 0.00 1.12 1.12 88 1013.8
20260507115554 8 86 3.2 12.9 0.00 1.14 1.12 88 1013.7
20260507115012 8 81 4.8 14.5 0.00 1.14 1.12 89 1013.8
20260507114548 8 5 6.4 14.5 0.03 1.14 1.12 89 1013.8
20260507114006 8 35 3.2 12.9 0.03 1.14 1.12 89 1013.9
20260507113524 8 26 3.2 12.9 0.05 1.14 1.12 89 1013.9
20260507113044 8 13 4.8 12.9 0.05 1.14 1.12 89 1013.9
20260507112503 8 19 4.8 12.9 0.05 1.14 1.12 89 1013.8
20260507112025 8 360 4.8 12.9 0.05 1.14 1.12 89 1013.8
20260507111552 8 27 1.6 9.7 0.05 1.14 1.12 89 1013.7
20260507111008 8 32 1.6 11.3 0.05 1.14 1.12 89 1013.6
20260507110527 8 51 4.8 11.3 0.05 1.14 1.12 90 1013.6
20260507110044 8 355 4.8 8.0 0.05 1.14 1.12 90 1013.6
20260507105500 8 44 1.6 8.0 0.05 1.14 1.12 90 1013.6
20260507105030 7 24 3.2 9.7 0.08 1.14 1.12 90 1013.6
20260507104550 7 30 3.2 12.9 0.05 1.12 1.09 89 1013.7
20260507104006 7 57 3.2 11.3 0.05 1.12 1.09 90 1013.6
20260507103526 7 15 4.8 12.9 0.05 1.09 1.09 90 1013.4
20260507103043 7 22 4.8 11.3 0.05 1.09 1.09 90 1013.4
20260507102502 7 25 4.8 12.9 0.05 1.09 1.09 90 1013.4
20260507102017 7 69 4.8 14.5 0.05 1.09 1.09 90 1013.4
20260507101558 7 9 3.2 14.5 0.03 1.09 1.07 90 1013.5
20260507101002 7 24 3.2 9.7 0.03 1.09 1.07 90 1013.4
20260507100527 7 40 1.6 6.4 0.03 1.09 1.07 89 1013.3
20260507100047 7 16 1.6 8.0 0.03 1.09 1.07 89 1013.3
20260507095550 7 10 1.6 8.0 0.03 1.09 1.07 89 1013.3
20260507095006 7 49 0.0 8.0 0.00 1.07 1.04 89 1013.2
20260507094526 7 355 0.0 8.0 0.00 1.07 1.04 89 1013.1
20260507094046 7 29 3.2 8.0 0.00 1.07 1.04 89 1013.2
20260507093508 7 5 1.6 9.7 0.00 1.07 1.04 89 1013.1
20260507093039 7 22 3.2 12.9 0.00 1.07 1.04 89 1012.9
20260507092548 7 66 6.4 14.5 0.00 1.07 1.04 89 1012.9
20260507092004 7 36 8.0 16.1 0.00 1.07 1.04 88 1012.9
20260507091523 7 59 6.4 16.1 0.00 1.07 1.04 89 1012.7
20260507091041 7 71 3.2 9.7 0.00 1.07 1.04 89 1012.7
20260507090558 7 55 3.2 8.0 0.00 1.07 1.04 89 1012.6
20260507090016 7 30 1.6 9.7 0.00 1.07 1.04 89 1012.6
20260507085538 7 345 1.6 8.0 0.00 1.07 1.04 89 1012.5
20260507085055 7 58 1.6 8.0 0.00 1.07 1.04 89 1012.5
20260507084522 7 35 0.0 4.8 0.00 1.07 1.04 89 1012.4
20260507084040 7 50 0.0 9.7 0.00 1.07 1.04 89 1012.4
20260507083600 7 340 3.2 14.5 0.00 1.07 1.04 89 1012.4
20260507083021 7 69 6.4 12.9 0.00 1.07 1.04 90 1012.4
20260507082536 7 355 3.2 9.7 0.03 1.07 1.04 90 1012.4
20260507082056 7 5 0.0 8.0 0.03 1.07 1.04 90 1012.2
20260507081533 7 51 3.2 11.3 0.03 1.07 1.04 90 1012.2
20260507081041 7 38 4.8 12.9 0.05 1.07 1.04 90 1012.2
20260507080601 7 55 1.6 8.0 0.05 1.07 1.04 90 1012.1
20260507080021 7 47 3.2 9.7 0.05 1.07 1.04 90 1012.1
20260507075549 7 61 4.8 11.3 0.05 1.07 1.04 90 1012.1
20260507075005 7 20 4.8 9.7 0.08 1.07 1.04 90 1012.0
20260507074523 7 45 3.2 8.0 0.08 1.07 1.04 90 1012.0
20260507074043 7 37 1.6 11.3 0.08 1.07 1.04 90 1011.9
20260507073509 7 61 4.8 14.5 0.08 1.07 1.04 90 1011.8
20260507073027 7 42 6.4 14.5 0.08 1.07 1.04 90 1011.8
20260507072547 7 5 4.8 9.7 0.08 1.04 1.02 90 1011.7
20260507072004 7 44 3.2 8.0 0.08 1.04 1.02 90 1011.5
20260507071526 7 360 3.2 8.0 0.05 1.02 0.99 90 1011.4
20260507071040 7 44 1.6 8.0 0.05 1.02 0.99 90 1011.3
20260507070505 7 22 1.6 9.7 0.05 1.02 0.99 90 1011.3
20260507070022 7 64 3.2 9.7 0.05 0.99 0.99 90 1011.3
20260507065551 7 58 6.4 9.7 0.05 0.99 0.99 90 1011.2
20260507065008 7 54 4.8 12.9 0.03 0.99 0.97 90 1011.2
20260507064542 7 34 4.8 14.5 0.03 0.99 0.97 90 1011.0
20260507064056 7 26 1.6 14.5 0.03 0.99 0.97 90 1011.0
20260507063520 7 73 3.2 9.7 0.03 0.99 0.97 90 1011.0
20260507063037 7 18 4.8 8.0 0.03 0.99 0.97 90 1010.9
20260507062555 7 49 3.2 8.0 0.00 0.97 0.94 90 1010.8
20260507062023 7 35 1.6 9.7 0.00 0.97 0.94 90 1010.7
20260507061542 7 355 1.6 9.7 0.00 0.97 0.94 90 1010.7
20260507061100 7 12 3.2 12.9 0.00 0.97 0.94 90 1010.7
20260507060520 7 32 3.2 12.9 0.00 0.97 0.94 90 1010.6
20260507060038 7 348 3.2 9.7 0.00 0.97 0.94 90 1010.6
20260507055557 7 23 1.6 9.7 0.00 0.97 0.94 90 1010.6
20260507055022 7 38 3.2 12.9 0.00 0.97 0.94 90 1010.5
20260507054543 7 22 4.8 12.9 0.00 0.97 0.94 90 1010.4
20260507054100 7 19 0.0 6.4 0.00 0.97 0.94 90 1010.4
20260507053517 7 54 1.6 9.7 0.00 0.97 0.94 90 1010.3
20260507053037 7 324 0.0 8.0 0.00 0.97 0.94 90 1010.4
20260507052555 7 64 3.2 12.9 0.00 0.97 0.94 90 1010.3
20260507052021 7 345 4.8 12.9 0.00 0.97 0.94 90 1010.2
20260507051538 7 48 3.2 9.7 0.00 0.97 0.94 90 1010.2
20260507051046 7 13 4.8 9.7 0.00 0.97 0.94 91 1010.1
20260507050503 7 11 3.2 9.7 0.00 0.97 0.94 91 1010.0
20260507050038 7 76 4.8 12.9 0.00 0.97 0.94 90 1009.8
20260507045554 7 40 3.2 12.9 0.00 0.97 0.94 90 1009.8
20260507045018 7 55 4.8 9.7 0.00 0.97 0.94 90 1009.8
20260507044538 7 18 0.0 16.1 0.00 0.97 0.94 90 1009.7
20260507044056 7 80 3.2 16.1 0.00 0.97 0.94 90 1009.6
20260507043514 7 59 4.8 9.7 0.03 0.97 0.94 90 1009.6
20260507043041 7 61 4.8 12.9 0.03 0.97 0.94 90 1009.6
20260507042559 7 92 3.2 9.7 0.03 0.97 0.94 90 1009.5
20260507042026 7 40 4.8 9.7 0.03 0.97 0.94 90 1009.5
20260507041554 7 15 1.6 11.3 0.03 0.97 0.94 90 1009.4
20260507041012 7 55 4.8 11.3 0.05 0.97 0.94 90 1009.3
20260507040534 7 64 3.2 8.0 0.10 0.97 0.94 90 1009.2
20260507040055 7 32 3.2 12.9 0.15 0.97 0.94 90 1009.1
20260507035506 7 36 3.2 12.9 0.20 0.97 0.94 90 1009.0
20260507035022 7 21 1.6 12.9 0.25 0.97 0.94 90 1009.1
20260507034540 7 13 3.2 11.3 0.28 0.97 0.94 90 1009.1
20260507034058 7 40 3.2 9.7 0.33 0.97 0.94 90 1009.1
20260507033526 7 11 1.6 9.7 0.36 0.94 0.91 90 1009.1
20260507033046 7 355 1.6 6.4 0.41 0.94 0.91 90 1009.1
20260507032510 7 55 1.6 6.4 0.46 0.94 0.91 90 1009.1
20260507032029 7 38 1.6 9.7 0.51 0.94 0.91 90 1009.1
20260507031550 7 360 0.0 9.7 0.53 0.94 0.91 90 1008.9
20260507031007 7 23 1.6 6.4 0.53 0.89 0.89 90 1009.0
20260507030527 7 26 0.0 14.5 0.53 0.86 0.84 90 1009.0
20260507030045 7 19 4.8 14.5 0.53 0.79 0.79 89 1008.9
20260507025506 7 40 4.8 11.3 0.51 0.71 0.71 89 1008.8
20260507025032 7 57 4.8 9.7 0.51 0.71 0.69 89 1008.9
20260507024552 7 351 3.2 8.0 0.51 0.69 0.66 89 1009.0
20260507024011 7 30 1.6 14.5 0.51 0.64 0.61 89 1009.1
20260507023525 7 342 6.4 14.5 0.48 0.58 0.56 89 1009.2
20260507023054 7 323 3.2 14.5 0.46 0.53 0.51 89 1009.2
20260507022513 7 348 0.0 12.9 0.43 0.48 0.46 89 1009.1
20260507022041 7 331 3.2 12.9 0.38 0.43 0.43 89 1009.1
20260507021507 7 26 0.0 14.5 0.36 0.41 0.38 89 1009.0
20260507021023 7 5 4.8 14.5 0.33 0.36 0.33 89 1009.1
20260507020542 7 331 3.2 12.9 0.28 0.30 0.28 88 1009.0
20260507020009 7 5 4.8 12.9 0.23 0.25 0.23 88 1009.0
20260507015530 7 319 3.2 9.7 0.20 0.53 0.20 88 1009.0
20260507015048 8 348 3.2 8.0 0.18 0.51 0.18 88 1008.9
20260507014515 8 47 3.2 9.7 0.15 0.48 0.15 88 1008.8
20260507014035 8 28 6.4 11.3 0.13 0.46 0.13 88 1008.7
20260507013555 8 306 3.2 9.7 0.08 0.43 0.08 88 1008.6
20260507013037 8 321 1.6 8.0 0.05 0.41 0.05 88 1008.7
20260507012541 8 18 0.0 8.0 0.05 0.38 0.05 87 1008.6
20260507012102 8 22 3.2 8.0 0.05 0.38 0.05 87 1008.6
20260507011531 8 22 3.2 8.0 0.03 0.36 0.03 87 1008.6
20260507011036 8 23 3.2 14.5 0.00 0.33 0.00 86 1008.5
20260507010556 8 304 3.2 14.5 0.00 0.33 0.00 86 1008.5
20260507010011 8 22 0.0 14.5 0.00 0.33 0.00 86 1008.4
20260507005540 8 21 3.2 14.5 0.00 1.02 0.00 86 1008.3
20260507005057 8 340 4.8 11.3 0.00 1.02 0.00 85 1008.3
20260507004517 8 346 3.2 9.7 0.00 1.02 0.00 85 1008.3
20260507004032 8 13 1.6 12.9 0.00 1.02 0.00 85 1008.2
20260507003554 8 348 4.8 12.9 0.00 1.02 0.00 85 1008.1
20260507003010 9 355 1.6 8.0 0.00 1.02 0.00 85 1008.2
20260507002539 9 19 3.2 9.7 0.00 1.02 0.00 85 1008.2
20260507002100 9 360 1.6 9.7 0.00 1.02 0.00 85 1008.2
20260507001525 8 337 1.6 8.0 0.00 1.02 0.00 85 1008.3
20260507001047 9 24 3.2 8.0 0.00 1.02 0.00 85 1008.4
20260507000516 9 43 3.2 9.7 0.00 1.02 0.00 85 1008.4
20260507000031 9 5 4.8 9.7 0.00 1.02 0.00 85 1008.3
20260506235547 9 70 1.6 9.7 0.00 1.09 0.00 85 1008.3
20260506235005 9 70 4.8 11.3 0.00 1.09 0.00 85 1008.0
20260506234529 9 64 3.2 11.3 0.00 1.09 0.00 84 1008.0
20260506234052 9 12 0.0 11.3 0.00 1.09 0.00 84 1007.9
20260506233506 9 325 3.2 14.5 0.00 1.09 0.00 84 1007.8
20260506233026 9 16 3.2 14.5 0.00 1.09 0.00 84 1007.9
20260506232545 9 46 1.6 12.9 0.00 1.09 0.00 84 1008.1
20260506232002 9 30 3.2 12.9 0.00 1.09 0.00 84 1008.1
20260506231530 9 11 3.2 9.7 0.00 1.09 0.00 84 1008.1
20260506231049 9 23 1.6 8.0 0.00 1.09 0.00 84 1008.2
20260506230505 9 5 1.6 8.0 0.00 1.09 0.00 84 1008.1
20260506230025 9 26 1.6 9.7 0.00 1.09 0.00 84 1008.1
20260506225545 10 11 3.2 9.7 0.00 1.22 0.00 84 1008.0
20260506225002 10 24 1.6 8.0 0.00 1.22 0.00 84 1007.9
20260506224533 10 24 1.6 12.9 0.00 1.22 0.00 84 1007.9
20260506224052 10 31 3.2 12.9 0.00 1.22 0.00 84 1007.9